CZ-6A DEB, 61291

Orbit data source: Space-Track

CZ-6A DEB, 61291 is space debris in LEO originally from a launch on Tue, 06 Aug 2024 UTC launched from the Taiyaun Space Center, China (TSC). Debris objects in space refer to the collection of defunct objects orbiting the Earth. Examples of debris include non-operational satellites, rocket bodies, and fragments generated from explosions, collisions, or faulty payload assembly.

Loading next visibility...
Identifier
61291, 2024-140TC
Orbit
LEO
Country
Flag of CNCN / PRC
Related business
Manufacturer
SAST
Mission
Spacecraft
Bus & Motor
Unknown
Mass
Unknown
Launch date (UTC)
2024-08-06 (2 years ago)
Launch vehicle
Unknown
Launch site
Taiyaun Space Center, China (TSC)
Object type
Payload
Rocket body
Debris
Shape & HBR
Unknown shape, 0.1 m
Radar Cross Section
Medium (>0.1 m² and <1 m²)

Expand to show TLE details & history
Last TLE update: 14 hours ago

TLE from 14 hours ago
0 CZ-6A DEB
1 61291U 24140TC  26171.27792059  .00004153  00000-0  19245-2 0  9994
2 61291  89.0209 276.8921 0089627 196.8709 162.9496 14.18510292 93367
Epoch: 2026-06-20T06:40Z
TLE epoch observation values (Epoch: 2026-06-20T06:40:12.338Z)
Latitude
-0.00003°
Longitude
-91.65415°
Altitude
895.277 km
Speed
7.373 km/s
True Right ascension
18h 27m 34s
True Declination
0° 00' 00"
Sunlit
Object was in full shadow at epoch
Visualization orbit readout
Latitude
Unknown
Longitude
Unknown
Altitude
Unknown
Speed
Unknown
Apparent Right ascension
Unknown
Apparent Declination
Unknown
Sunlit
N/A
Visualization observer readout
Local Sidereal Time
07:21:56
Azimuth
Unknown
Elevation
Unknown
Doppler factor
Unknown
Orbital elements
Apogee altitude
891.929 km
Perigee altitude
762.768 km
Semi-major axis
7,205.485 km
Eccentricity
0.00896
Inclination
89.0209°
RAAN
276.8921°
Arg. of periapsis
196.8709°
True anomaly
163.24755°
Mean anomaly
162.9496°
Eccentric anomaly
163.09889°
Mean motion
3.54853 °/min
Orbital period
101.45 mins
BSTAR
0.0019245
Loading maneuver chart data...
Computing Atmospheric mass density...
Loading historical data...
Loading historical data...
Loading historical data...
Loading historical data...
Loading historical data...
Loading historical data...
Loading historical data...

Documentation

Showing up to 5 results
|